Regional Weather Roundup
Issued by NWS

Home | Current Version | Previous Version | Graphics & Text | Print | Product List | Glossary On
Versions: 1 2 3 4 5 6 7 8 9 10 11 12 13 14 15 16 17 18 19 20 21 22 23 24 25 26 27 28
000
ASUS45 KPSR 200110
RWRAZ

ARIZONA HOURLY REGIONAL WEATHER ROUNDUP
NATIONAL WEATHER SERVICE PHOENIX AZ
600 PM MST TUE SEP 19 2017

NOTE: FAIR INDICATES FEW OR NO CLOUDS BELOW 12,000 FEET WITH NO
SIGNIFICANT WEATHER AND/OR OBSTRUCTIONS TO VISIBILITY.

AZZ001>003-036-200200-
NORTHWEST ARIZONA

CITY           SKY/WX    TMP DP  RH WIND       PRES   REMARKS
KINGMAN        PTCLDY    81  40  23 SW16G24   29.85S
$$

AZZ004>008-015-016-018-200200-
NORTH CENTRAL ARIZONA

CITY           SKY/WX    TMP DP  RH WIND       PRES   REMARKS
GRAND CANYON   PTCLDY    69  27  20 SW23G31   30.03R
WILLIAMS       PTCLDY    66  27  22 SW16      30.07S
PRESCOTT       CLEAR     74  37  26 S12       29.99R
FLAGSTAFF      PTCLDY    63  26  24 SW20G29   30.09R
PAYSON           N/A     75  34  22 SW12G18   30.02S
PAGE           CLEAR     84  31  14 W9G17     29.78R
$$

AZZ009>014-017-200200-
NORTHEAST ARIZONA

CITY           SKY/WX    TMP DP  RH WIND       PRES   REMARKS
WINSLOW        CLEAR     78  26  14 SW16      29.95R
SAINT JOHNS    CLEAR     76  36  23 W20G30    29.98R
WINDOW ROCK    CLEAR     72  21  14 SW20G26   30.03R
SHOW LOW       CLEAR     70  39  32 SW23G30   30.06R
$$

AZZ540-542>544-546-548-200200-
GREATER PHOENIX AREA

CITY           SKY/WX    TMP DP  RH WIND       PRES   REMARKS
PHOENIX        PTCLDY    97  45  16 W16G23    29.70S
BUCKEYE        CLEAR     91  43  18 SW8       29.72S
GLENDALE       PTCLDY    97  39  13 SW10G18   29.72S
LUKE AFB       CLEAR     95  37  13 SW15      29.71S
DEER VALLEY    CLEAR     93  42  17 SW10      29.73F
SCOTTSDALE     CLEAR     95  40  14 SW10      29.75S
MESA-FALCON    PTCLDY    95  45  17 SW13      29.73F
MESA-GATEWAY   CLEAR     95  43  16 W8        29.74F
CHANDLER       CLEAR     97  34  11 S10       29.71F
$$

AZZ539-553-200200-
SOUTHWEST MARICOPA COUNTY AND PINAL COUNTY

CITY           SKY/WX    TMP DP  RH WIND       PRES   REMARKS
CASA GRANDE    NOT AVBL
GILA BEND      PTCLDY    95  21   7 S15       29.70S
$$

AZZ503-504-507>509-200200-
SOUTHEAST ARIZONA

CITY           SKY/WX    TMP DP  RH WIND       PRES   REMARKS
TUCSON         CLEAR     92  47  21 W12G23    29.87S
DAVIS-MONTHAN  CLEAR     92  45  19 W15G21    29.85S
RYAN FIELD     CLEAR     91  45  19 SW16      29.85S
NOGALES        CLEAR     84  51  31 SW10      29.97R
SIERRA VISTA   CLEAR     82  48  30 SW15      30.03R
DOUGLAS        CLEAR     84  49  29 W14       29.96S
SAFFORD        FAIR      90  46  21 NW17      29.84R
$$

AZZ532-200200-
SOUTHWEST ARIZONA

CITY           SKY/WX    TMP DP  RH WIND       PRES   REMARKS
YUMA           CLEAR     95  40  14 W7        29.67S
$$

CAZ041-043-047-048-061-525>527-560>570-200200-
SOUTHERN CALIFORNIA

CITY           SKY/WX    TMP DP  RH WIND       PRES   REMARKS
DOWNTOWN L.A.  MOSUNNY   73  61  65 W7        29.85F
L.A. AIRPORT   MOSUNNY   69  63  81 W13       29.86F
SAN DIEGO      MOCLDY    70  60  70 SW7       29.89S
BURBANK        CLOUDY    72  58  61 S8        29.86S
ONTARIO        PTCLDY    75  55  49 W8        29.85F
RIVERSIDE      CLEAR     76  58  53 W14       29.84F
PALM SPRINGS   CLEAR     89  49  25 NW14      29.69F
EL CENTRO NAS  CLEAR     92  39  15 W28G35    29.69R
IMPERIAL       CLEAR     92  46  20 W18G26    29.65R
BLYTHE         CLEAR     96  38  13 SW13G25   29.67S
NEEDLES        CLEAR     96  33  11 S15       29.67F
$$

NVZ020-UTZ003-200200-
SOUTHERN NEVADA-UTAH

CITY           SKY/WX    TMP DP  RH WIND       PRES   REMARKS
LAS VEGAS      PTCLDY    88  41  19 S12G20    29.70F
SALT LAKE CITY PTCLDY    61  33  35 N9        29.90S
$$

NMZ009-TXZ055-200200-
NEW MEXICO-WEST TEXAS

CITY           SKY/WX    TMP DP  RH WIND       PRES   REMARKS
ALBUQUERQUE    PTCLDY    82  18   9 W15       29.90S
EL PASO        PTCLDY    90  46  21 W21G26    29.88R
$$


........................KEY........................
SKY/WX - SKY CONDITION/WEATHER
TMP    - TEMPERATURE IN FAHRENHEIT
DP     - DEW POINT IN FAHRENHEIT
RH     - RELATIVE HUMIDITY IN PERCENT
WIND   - DIRECTION AND SPEED IN MILES PER HOUR (MPH)
VRB    - VARIABLE WIND DIRECTION
PRES   - MEAN SEA LEVEL PRESSURE IN INCHES OF MERCURY
         F - FALLING PRESSURE   R - RISING PRESSURE
         S - STEADY PRESSURE
VSB    - VISIBILITY IN MILES
HX     - HEAT INDEX IN FAHRENHEIT
WCI    - WIND CHILL INDEX IN FAHRENHEIT
TC     - TEMPERATURE IN CELSIUS WHICH IS ALSO KNOWN AS
         TEMPERATURE IN CENTIGRADE
AFB    - AIR FORCE BASE
         LUKE AFB IS LUKE AIR FORCE BASE
         DAVIS-MONTHAN IS DAVIS-MONTHAN AIR FORCE BASE
NAS    - NAVAL AIR STATION
         EL CENTRO NAS IS EL CENTRO NAVAL AIR STATION
N/A    - NOT AVAILABLE





USA.gov is the U.S. government's official web portal to all federal, state and local government web resources and services.